Flag for Austria Weather past 2 weeks in Graz, Styria, Austria

Now
50 °F

Sunny.


Feels Like: 50 °F
Forecast: 38 / 62 °F
Wind: 1 mph from North

Location: Graz-Thalerhof-Flughafen

Current Time: Sep 23, 2014 at 8:31:01 PM

Latest Report: Sep 23, 2014 at 7:50 PM


Visibility: 10 mi

Pressure: 30.09 "Hg

Humidity: 67%

Dew point: 39 °F

Location of GrazLocation

Historic Weather in Graz — Graph

°F

Graz temperature yesterday

Maximum temperature yesterday: 66 °F (at 12:50 PM)
Minimum temperature yesterday: 52 °F (at 8:50 PM)
Average temperature yesterday: 59 °F

Past Weeks' High & Low Weather Summary

 TemperatureHumidityPressure
High77 °F (Sep 9, 12:50 PM)100% (Sep 9, 12:20 AM)30.12 "Hg (Sep 9, 12:20 AM)
Low41 °F (Sep 23, 6:50 AM)35% (Sep 22, 2:50 PM)29.83 "Hg (Sep 12, 12:20 AM)
Average60 °F85%30.00 "Hg
* Reported Sep 8 7:20 PM — Sep 23 7:20 PM, Graz, Weather by CustomWeather, © 2014

Note: Actual official high and low records may vary slightly from our data, if they occured in-between our weather recording intervals... More about our weather records

Advertising

Graz weather history for previous 24 hours

 ConditionsComfort  
Time TempWeatherWind HumidityBarometerVisibility
7:20 PM
Sep 23
54 °FSunny.1 mph58%30.09 "Hg10 mi
6:50 PM55 °FSunny.5 mph51%30.09 "Hg10 mi
6:20 PM57 °FSunny.7 mph48%30.07 "Hg10 mi
5:50 PM59 °FSunny.8 mph51%30.07 "Hg10 mi
5:20 PM61 °FSunny.12 mph42%30.07 "Hg10 mi
4:50 PM61 °FSunny.15 mph45%30.07 "Hg10 mi
4:20 PM61 °FPassing clouds.15 mph45%30.07 "HgN/A
3:50 PM61 °FPassing clouds.16 mph45%30.07 "HgN/A
3:20 PM63 °FPassing clouds.14 mph42%30.07 "HgN/A
2:50 PM63 °FPassing clouds.15 mph45%30.07 "HgN/A
2:20 PM63 °FPassing clouds.15 mph45%30.07 "HgN/A
1:50 PM63 °FPassing clouds.20 mph45%30.07 "HgN/A
1:20 PM61 °FPassing clouds.18 mph45%30.07 "HgN/A
12:50 PM61 °FPassing clouds.15 mph42%30.07 "HgN/A
12:20 PM61 °FScattered clouds.12 mph45%30.07 "HgN/A
11:50 AM61 °FScattered clouds.10 mph45%30.07 "HgN/A
11:20 AM59 °FScattered clouds.7 mph45%30.04 "HgN/A
10:50 AM59 °FPassing clouds.12 mph51%30.04 "HgN/A
10:20 AM57 °FPassing clouds.6 mph51%30.04 "HgN/A
9:50 AM57 °FPassing clouds.3 mph51%30.04 "HgN/A
9:20 AM55 °FPassing clouds.2 mph51%30.04 "HgN/A
8:50 AM54 °FPassing clouds.3 mph63%30.01 "HgN/A
8:20 AM52 °FPassing clouds.3 mph58%30.01 "HgN/A
7:50 AM48 °FPassing clouds.5 mph66%30.01 "HgN/A
7:20 AM43 °FPassing clouds.2 mph87%29.98 "HgN/A
6:50 AM41 °FPassing clouds.2 mph93%29.98 "HgN/A
6:20 AM43 °FPassing clouds.3 mph87%29.95 "HgN/A
5:50 AM43 °FPassing clouds.1 mph81%29.95 "HgN/A
5:20 AM43 °FClear.1 mph81%29.95 "Hg10 mi
4:50 AM46 °FPassing clouds.3 mph71%29.95 "HgN/A
4:20 AM45 °FClear.1 mph76%29.95 "Hg10 mi
3:50 AM48 °FPassing clouds.5 mph66%29.95 "HgN/A
3:20 AM50 °FPassing clouds.7 mph62%29.95 "HgN/A
2:50 AM50 °FCool.7 mph67%29.95 "HgN/A
2:20 AM46 °FClear.3 mph87%29.98 "Hg10 mi
1:50 AM48 °FPassing clouds.3 mph82%29.98 "HgN/A
1:20 AM50 °FSprinkles. Overcast.2 mph82%29.95 "HgN/A
12:50 AM52 °FLight rain. Overcast.5 mph72%29.95 "HgN/A
12:20 AM52 °FPassing clouds.6 mph72%29.95 "HgN/A
11:50 PM
Sep 22
52 °FClear.7 mph77%29.95 "Hg10 mi
11:20 PM54 °FClear.3 mph63%29.95 "Hg10 mi
10:50 PM55 °FPassing clouds.5 mph55%29.95 "HgN/A
10:20 PM54 °FPartly cloudy.3 mph63%29.95 "HgN/A
9:50 PM54 °FClear.3 mph67%29.95 "Hg10 mi
9:20 PM54 °FPassing clouds.3 mph67%29.92 "HgN/A
8:50 PM52 °FClear.5 mph72%29.92 "Hg10 mi
8:20 PM54 °FPassing clouds.5 mph63%29.92 "HgN/A
Weather by CustomWeather, © 2014

See weather overviewHow to use our weather pages